Time,TemperatureF,DewpointF,PressureIn,WindDirection,WindDirectionDegrees,WindSpeedMPH,WindSpeedGustMPH,Humidity,HourlyPrecipIn,Conditions,Clouds,dailyrainin,SoftwareType,DateUTC
2013-11-14 00:13:00,75.0,67.0,30.09,ENE,65,17.0,29.0,77,0.00,,,0.00,,2013-11-14 05:13:00,
2013-11-14 00:23:00,74.0,67.0,30.07,ENE,63,17.0,29.0,78,0.00,,,0.00,,2013-11-14 05:23:00,
2013-11-14 00:44:00,74.0,67.0,30.08,ENE,59,19.0,28.0,78,0.00,,,0.00,,2013-11-14 05:44:00,
2013-11-14 00:53:00,74.0,67.0,30.08,NE,51,18.0,33.0,79,0.00,,,0.00,,2013-11-14 05:53:00,
2013-11-14 01:22:00,74.0,67.0,30.07,ENE,61,18.0,30.0,79,0.00,,,0.00,,2013-11-14 06:22:00,
2013-11-14 01:52:00,74.0,66.0,30.06,NE,44,17.0,29.0,77,0.00,,,0.00,,2013-11-14 06:52:00,
2013-11-14 02:22:00,74.0,66.0,30.06,NE,53,16.0,32.0,77,0.00,,,0.00,,2013-11-14 07:22:00,
2013-11-14 02:42:00,74.0,66.0,30.06,NE,54,18.0,31.0,76,0.00,,,0.00,,2013-11-14 07:42:00,
2013-11-14 02:53:00,74.0,66.0,30.06,ENE,59,10.0,29.0,77,0.00,,,0.00,,2013-11-14 07:53:00,
2013-11-14 03:22:00,74.0,66.0,30.05,ENE,72,18.0,28.0,77,0.00,,,0.00,,2013-11-14 08:22:00,
2013-11-14 03:53:00,74.0,66.0,30.06,East,80,18.0,-999.0,77,-99.99,,,-99.99,,2013-11-14 08:53:00,
2013-11-14 04:11:00,73.0,65.0,30.05,ENE,61,15.0,-999.0,77,-99.99,,,-99.99,,2013-11-14 09:11:00,
2013-11-14 04:22:00,73.0,65.0,30.05,ENE,67,17.0,-999.0,76,-99.99,,,-99.99,,2013-11-14 09:22:00,
2013-11-14 04:53:00,73.0,65.0,30.04,ENE,69,17.0,-999.0,76,-99.99,,,-99.99,,2013-11-14 09:53:00,
2013-11-14 05:23:00,74.0,66.0,30.05,ENE,58,18.0,-999.0,77,-99.99,,,-99.99,,2013-11-14 10:23:00,
2013-11-14 05:42:00,74.0,66.0,30.05,NE,54,18.0,-999.0,77,-99.99,,,-99.99,,2013-11-14 10:42:00,
2013-11-14 05:52:00,74.0,66.0,30.06,ENE,57,16.0,-999.0,76,-99.99,,,-99.99,,2013-11-14 10:52:00,
2013-11-14 06:22:00,74.0,66.0,30.06,NE,55,17.0,-999.0,77,-99.99,,,-99.99,,2013-11-14 11:22:00,
2013-11-14 06:42:00,74.0,66.0,30.08,NE,46,20.0,-999.0,76,-99.99,,,-99.99,,2013-11-14 11:42:00,
2013-11-14 06:52:00,74.0,66.0,30.08,ENE,63,18.0,-999.0,76,-99.99,,,-99.99,,2013-11-14 11:52:00,
2013-11-14 07:21:00,74.0,66.0,30.10,ENE,69,18.0,-999.0,75,-99.99,,,-99.99,,2013-11-14 12:21:00,
2013-11-14 07:52:00,74.0,66.0,30.11,NE,53,17.0,-999.0,77,-99.99,,,-99.99,,2013-11-14 12:52:00,
2013-11-14 08:22:00,74.0,66.0,30.12,ENE,57,18.0,-999.0,77,-99.99,,,-99.99,,2013-11-14 13:22:00,
2013-11-14 08:42:00,74.0,67.0,30.12,ENE,57,17.0,-999.0,78,-99.99,,,-99.99,,2013-11-14 13:42:00,
2013-11-14 08:52:00,74.0,67.0,30.13,ENE,75,16.0,-999.0,78,-99.99,,,-99.99,,2013-11-14 13:52:00,
2013-11-14 09:22:00,75.0,67.0,30.14,East,85,16.0,-999.0,77,-99.99,,,-99.99,,2013-11-14 14:22:00,
2013-11-14 09:52:00,76.0,68.0,30.14,NE,47,16.0,-999.0,76,-99.99,,,-99.99,,2013-11-14 14:52:00,
2013-11-14 10:22:00,75.0,67.0,30.13,ENE,63,17.0,-999.0,75,-99.99,,,-99.99,,2013-11-14 15:22:00,
2013-11-14 10:43:00,75.0,67.0,30.14,East,84,15.0,-999.0,76,-99.99,,,-99.99,,2013-11-14 15:43:00,
2013-11-14 10:53:00,75.0,67.0,30.13,East,86,14.0,-999.0,75,-99.99,,,-99.99,,2013-11-14 15:53:00,
2013-11-14 11:13:00,75.0,66.0,30.13,ENE,68,16.0,-999.0,74,-99.99,,,-99.99,,2013-11-14 16:13:00,
2013-11-14 11:23:00,76.0,67.0,30.12,ENE,76,15.0,-999.0,74,-99.99,,,-99.99,,2013-11-14 16:23:00,
2013-11-14 11:52:00,76.0,67.0,30.12,East,80,16.0,-999.0,74,-99.99,,,-99.99,,2013-11-14 16:52:00,
2013-11-14 12:23:00,76.0,67.0,30.11,ENE,78,16.0,-999.0,75,-99.99,,,-99.99,,2013-11-14 17:23:00,
2013-11-14 12:42:00,76.0,67.0,30.10,ENE,73,15.0,-999.0,75,-99.99,,,-99.99,,2013-11-14 17:42:00,
2013-11-14 12:52:00,76.0,67.0,30.09,ENE,70,15.0,-999.0,75,-99.99,,,-99.99,,2013-11-14 17:52:00,
2013-11-14 13:22:00,76.0,68.0,30.07,ENE,59,15.0,-999.0,76,-99.99,,,-99.99,,2013-11-14 18:22:00,
2013-11-14 13:52:00,76.0,67.0,30.06,NE,55,15.0,-999.0,74,-99.99,,,-99.99,,2013-11-14 18:52:00,
2013-11-14 14:21:00,76.0,67.0,30.06,ENE,73,13.0,-999.0,73,-99.99,,,-99.99,,2013-11-14 19:21:00,
2013-11-14 14:42:00,75.0,66.0,30.06,ENE,76,15.0,-999.0,73,-99.99,,,-99.99,,2013-11-14 19:42:00,
2013-11-14 14:52:00,76.0,67.0,30.06,NE,46,15.0,-999.0,73,-99.99,,,-99.99,,2013-11-14 19:52:00,
2013-11-14 15:12:00,76.0,67.0,30.05,ENE,71,14.0,-999.0,74,-99.99,,,-99.99,,2013-11-14 20:12:00,
2013-11-14 15:22:00,76.0,66.0,30.05,NE,53,15.0,-999.0,72,-99.99,,,-99.99,,2013-11-14 20:22:00,
2013-11-14 15:52:00,76.0,66.0,30.05,ENE,59,13.0,-999.0,72,-99.99,,,-99.99,,2013-11-14 20:52:00,
2013-11-14 16:22:00,76.0,66.0,30.06,ENE,71,14.0,-999.0,71,-99.99,,,-99.99,,2013-11-14 21:22:00,
2013-11-14 16:43:00,76.0,66.0,30.06,NE,55,14.0,-999.0,72,-99.99,,,-99.99,,2013-11-14 21:43:00,
2013-11-14 16:53:00,76.0,66.0,30.06,East,84,14.0,-999.0,72,-99.99,,,-99.99,,2013-11-14 21:53:00,
2013-11-14 17:23:00,75.0,66.0,30.07,ENE,68,10.0,-999.0,73,-99.99,,,-99.99,,2013-11-14 22:23:00,
2013-11-14 17:53:00,75.0,66.0,30.06,ENE,61,10.0,-999.0,73,-99.99,,,-99.99,,2013-11-14 22:53:00,
2013-11-14 18:22:00,75.0,65.0,30.07,East,82,12.0,-999.0,72,-99.99,,,-99.99,,2013-11-14 23:22:00,
2013-11-14 18:52:00,76.0,67.0,30.07,East,87,11.0,-999.0,74,-99.99,,,-99.99,,2013-11-14 23:52:00,
2013-11-14 19:11:00,76.0,67.0,30.08,East,84,11.0,-999.0,73,-99.99,,,-99.99,,2013-11-15 00:11:00,
2013-11-14 19:22:00,76.0,67.0,30.08,NE,54,11.0,-999.0,74,-99.99,,,-99.99,,2013-11-15 00:22:00,
2013-11-14 19:52:00,76.0,67.0,30.08,NE,56,10.0,-999.0,74,-99.99,,,-99.99,,2013-11-15 00:52:00,
2013-11-14 20:22:00,76.0,67.0,30.08,ENE,61,11.0,-999.0,74,-99.99,,,-99.99,,2013-11-15 01:22:00,
2013-11-14 20:42:00,76.0,67.0,30.08,ENE,75,11.0,-999.0,74,-99.99,,,-99.99,,2013-11-15 01:42:00,
2013-11-14 20:52:00,76.0,67.0,30.09,ENE,69,11.0,-999.0,74,-99.99,,,-99.99,,2013-11-15 01:52:00,
2013-11-14 21:22:00,76.0,67.0,30.09,ENE,76,12.0,-999.0,75,-99.99,,,-99.99,,2013-11-15 02:22:00,
2013-11-14 21:42:00,76.0,67.0,30.09,NE,51,12.0,-999.0,74,-99.99,,,-99.99,,2013-11-15 02:42:00,
2013-11-14 21:52:00,75.0,67.0,30.08,ENE,61,11.0,-999.0,77,-99.99,,,-99.99,,2013-11-15 02:52:00,
2013-11-14 22:22:00,76.0,68.0,30.09,ENE,61,11.0,-999.0,77,-99.99,,,-99.99,,2013-11-15 03:22:00,
2013-11-14 22:44:00,76.0,68.0,30.08,ENE,73,11.0,-999.0,76,-99.99,,,-99.99,,2013-11-15 03:44:00,
2013-11-14 22:54:00,76.0,68.0,30.08,ENE,67,11.0,-999.0,76,-99.99,,,-99.99,,2013-11-15 03:54:00,
2013-11-14 23:14:00,76.0,68.0,30.08,East,82,11.0,-999.0,76,-99.99,,,-99.99,,2013-11-15 04:14:00,
2013-11-14 23:24:00,76.0,67.0,30.07,East,86,12.0,-999.0,74,-99.99,,,-99.99,,2013-11-15 04:24:00,
2013-11-14 23:43:00,76.0,67.0,30.06,ENE,71,10.0,-999.0,75,-99.99,,,-99.99,,2013-11-15 04:43:00,
2013-11-14 23:53:00,76.0,67.0,30.06,ENE,73,12.0,-999.0,75,-99.99,,,-99.99,,2013-11-15 04:53:00,